Weather History for Destin, FL

Change the Weather History Date:

Sunday, October 7, 2012

  Actual Average Record
Temperature  
Mean Temperature 70 °F -  
Max Temperature 80 °F 79 °F 89 °F (2002)
Min Temperature 62 °F 64 °F 55 °F (2001)
Cooling Degree Days 6    
Growing Degree Days 20 (Base 50)    
Moisture  
Dew Point 63 °F    
Average Humidity 79    
Maximum Humidity 94    
Minimum Humidity 60    
Precipitation  
Precipitation 0.00 in - - ()
Sea Level Pressure  
Sea Level Pressure 30.01 in    
Wind  
Wind Speed 9 mph (North)    
Max Wind Speed 16 mph    
Max Gust Speed 21 mph    
Visibility 10 miles    
Events      
Averages and records for this station are not official NWS values.
T = Trace of Precipitation, MM = Missing Value Source: NWS Daily Summary

Daily Weather History Graph

Daily Weather History Graph

Search for Another Location

Airport:

Trip Planner

Search our weather history database for the weather conditions in past years. The results will help you decide how hot, cold, wet, or windy it might be!

Date:

Astronomy

Oct. 07, 2012 Rise Set
Actual Time 6:43 AM CDT 6:23 PM CDT
Civil Twilight 6:19 AM CDT 6:47 PM CDT
Nautical Twilight 5:51 AM CDT 7:15 PM CDT
Astronomical Twilight 5:23 AM CDT 7:42 PM CDT
Moon 11:50 PM CDT (10/7) 1:03 PM CDT (10/7)
Length of Visible Light 12h 28m
Length of Day
11h 40m
Waning Gibbous, 56% of the Moon is Illuminated
Oct 7
Waning Gibbous
Oct 8
Last Quarter
Oct 15
New
Oct 21
First Quarter
Oct 29
Full

Hourly Weather History & Observations

Time (CDT) Temp. Dew Point Humidity Pressure Visibility Wind Dir Wind Speed Gust Speed Precip Events Conditions
12:53 AM 71.1 °F 66.0 °F 84% 29.98 in 10.0 mi North 5.8 mph - N/A   Clear
1:53 AM 70.0 °F 66.0 °F 87% 29.98 in 10.0 mi North 5.8 mph - N/A   Clear
2:53 AM 69.1 °F 66.0 °F 90% 29.97 in 10.0 mi North 4.6 mph - N/A   Clear
3:53 AM 68.0 °F 64.9 °F 90% 29.97 in 10.0 mi North 9.2 mph - N/A   Clear
4:53 AM 66.9 °F 64.0 °F 90% 29.98 in 10.0 mi North 13.8 mph - N/A   Clear
5:53 AM 64.9 °F 63.0 °F 93% 29.99 in 10.0 mi North 11.5 mph - N/A   Clear
6:17 AM 64.4 °F 62.6 °F 94% 29.99 in 10.0 mi North 10.4 mph - N/A   Partly Cloudy
6:53 AM 64.0 °F 62.1 °F 93% 30.00 in 10.0 mi North 11.5 mph - N/A   Partly Cloudy
7:20 AM 62.6 °F 60.8 °F 94% 30.01 in 10.0 mi North 9.2 mph - N/A   Mostly Cloudy
7:53 AM 64.0 °F 62.1 °F 93% 30.02 in 10.0 mi North 10.4 mph - N/A   Overcast
8:49 AM 64.4 °F 60.8 °F 88% 30.03 in 10.0 mi North 12.7 mph - N/A   Partly Cloudy
8:53 AM 66.0 °F 61.0 °F 84% 30.04 in 10.0 mi North 12.7 mph - N/A   Partly Cloudy
9:38 AM 66.2 °F 62.6 °F 88% 30.05 in 10.0 mi North 13.8 mph 19.6 mph N/A   Mostly Cloudy
9:53 AM 68.0 °F 63.0 °F 84% 30.05 in 10.0 mi North 11.5 mph - N/A   Overcast
10:37 AM 69.8 °F 62.6 °F 78% 30.05 in 10.0 mi North 11.5 mph - N/A   Scattered Clouds
10:53 AM 71.1 °F 63.0 °F 75% 30.05 in 10.0 mi North 12.7 mph - N/A   Clear
11:53 AM 73.0 °F 62.1 °F 68% 30.04 in 10.0 mi North 12.7 mph - N/A   Clear
12:53 PM 75.0 °F 63.0 °F 66% 30.02 in 10.0 mi North 11.5 mph - N/A   Clear
1:53 PM 77.0 °F 63.0 °F 62% 29.99 in 10.0 mi NNW 12.7 mph - N/A   Clear
2:53 PM 79.0 °F 64.0 °F 60% 29.97 in 10.0 mi North 6.9 mph - N/A   Clear
3:53 PM 79.0 °F 64.0 °F 60% 29.97 in 10.0 mi North 10.4 mph - N/A   Clear
4:53 PM 79.0 °F 64.0 °F 60% 29.96 in 10.0 mi North 6.9 mph - N/A   Clear
5:53 PM 75.9 °F 64.0 °F 67% 29.98 in 10.0 mi NNE 5.8 mph - N/A   Clear
6:53 PM 73.9 °F 64.0 °F 71% 29.99 in 10.0 mi North 8.1 mph - N/A   Scattered Clouds
7:53 PM 72.0 °F 62.1 °F 71% 30.01 in 10.0 mi NNE 10.4 mph - N/A   Clear
8:53 PM 69.1 °F 60.1 °F 73% 30.04 in 10.0 mi North 10.4 mph 17.3 mph N/A   Clear
9:53 PM 66.9 °F 59.0 °F 76% 30.05 in 10.0 mi North 16.1 mph 20.7 mph N/A   Clear
10:53 PM 64.9 °F 57.0 °F 75% 30.05 in 10.0 mi North 11.5 mph - N/A   Clear
11:53 PM 63.0 °F 55.9 °F 78% 30.04 in 10.0 mi North 11.5 mph - N/A   Clear